Location: Fond Mahaut
(18.0707°N, 63.0465°W)
Time: 14:59:20
(UTC+00:00)

ADEOS Rocket - Pass Details

Date: 08 December 2019
Orbit: 858 x 1307 km, 98.7° (Epoch: 22 January)

Event Time Altitude Azimuth Distance (km) Brightness Sun altitude
Exits shadow 23:01:17 35° 60° (ENE) 1,364 3.2 -19.6°
Maximum altitude 23:02:54 44° 101° (E) 1,185 3.0 -20.0°
Drops below altitude 10° 23:08:16 10° 173° (S) 2,582 5.3 -21.2°
Sets 23:10:51 0° 179° (S) 3,571 6.2 -21.8°
